Weather History for Concord, NH

Change the Weather History Date:

Friday, December 9, 2011

  Actual Average Record
Temperature  
Mean Temperature 35 °F 29 °F  
Max Temperature 46 °F 39 °F 58 °F (1889)
Min Temperature 24 °F 20 °F -12 °F (1902)
Degree Days  
Heating Degree Days 30 36  
Month to date heating degree days 240 307  
Since 1 July heating degree days 1490 1867  
Cooling Degree Days 0 0  
Month to date cooling degree days 0 0  
Year to date cooling degree days 561 452  
Moisture  
Dew Point 25 °F    
Average Humidity 66    
Maximum Humidity 92    
Minimum Humidity 40    
Precipitation  
Precipitation 0.00 in 0.11 in 1.08 in (2014)
Month to date precipitation 2.43 0.99  
Year to date precipitation 53.14 38.40  
Snow  
Snow 0.00 in 0.50 in 15.60 in (2005)
Month to date snowfall T 3.5  
Since 1 July snowfall 25.7 6.1  
Snow Depth 0.00 in    
Sea Level Pressure  
Sea Level Pressure 30.26 in    
Wind  
Wind Speed 3 mph (SSW)    
Max Wind Speed 17 mph    
Max Gust Speed 23 mph    
Visibility 10 miles    
Events      
T = Trace of Precipitation, MM = Missing Value Source: NWS Daily Summary

Daily Weather History Graph

Daily Weather History Graph

Search for Another Location

Airport:

Trip Planner

Search our weather history database for the weather conditions in past years. The results will help you decide how hot, cold, wet, or windy it might be!

Date:

Astronomy

Dec. 09, 2011 Rise Set
Actual Time 7:05 AM EST 4:10 PM EST
Civil Twilight 6:33 AM EST 4:42 PM EST
Nautical Twilight 5:57 AM EST 5:18 PM EST
Astronomical Twilight 5:23 AM EST 5:53 PM EST
Moon 3:31 PM EST (12/9) 6:10 AM EST (12/9)
Length of Visible Light 10h 09m
Length of Day
9h 04m
Waxing Gibbous, 99% of the Moon is Illuminated
Dec 9
Waxing Gibbous
Dec 10
Full
Dec 17
Last Quarter
Dec 24
New
Jan 1
First Quarter

Hourly Weather History & Observations

Time (EST) Temp. Windchill Dew Point Humidity Pressure Visibility Wind Dir Wind Speed Gust Speed Precip Events Conditions
12:51 AM 30.9 °F 23.5 °F 24.1 °F 76% 30.27 in 10.0 mi SW 8.1 mph - N/A   Clear
1:51 AM 33.1 °F 27.7 °F 24.1 °F 70% 30.28 in 10.0 mi SSW 5.8 mph - N/A   Clear
2:51 AM 32.0 °F 28.7 °F 25.0 °F 75% 30.29 in 10.0 mi SW 3.5 mph - N/A   Clear
3:51 AM 28.9 °F - 24.1 °F 82% 30.29 in 10.0 mi Calm Calm - N/A   Clear
4:51 AM 26.1 °F - 25.0 °F 96% 30.29 in 10.0 mi Calm Calm - N/A   Clear
5:51 AM 28.0 °F - 26.1 °F 92% 30.30 in 10.0 mi Calm Calm - N/A   Clear
6:51 AM 27.0 °F - 24.1 °F 89% 30.32 in 10.0 mi Calm Calm - N/A   Clear
7:51 AM 28.9 °F - 26.1 °F 89% 30.33 in 10.0 mi Calm Calm - N/A   Overcast
8:51 AM 32.0 °F - 28.0 °F 85% 30.32 in 10.0 mi Calm Calm - N/A   Overcast
9:51 AM 35.1 °F 32.2 °F 28.0 °F 76% 30.32 in 10.0 mi SSE 3.5 mph - N/A   Mostly Cloudy
10:51 AM 36.0 °F 31.1 °F 27.0 °F 70% 30.31 in 10.0 mi SSE 5.8 mph - N/A   Clear
11:51 AM 42.1 °F 39.2 °F 26.1 °F 53% 30.27 in 10.0 mi SSE 4.6 mph - N/A   Clear
12:51 PM 45.0 °F 38.9 °F 23.0 °F 42% 30.26 in 10.0 mi SW 12.7 mph 18.4 mph N/A   Clear
1:51 PM 45.0 °F 38.9 °F 21.0 °F 39% 30.24 in 10.0 mi SW 12.7 mph 20.7 mph N/A   Clear
2:51 PM 43.0 °F 36.0 °F 21.0 °F 42% 30.24 in 10.0 mi SSW 13.8 mph 23.0 mph N/A   Clear
3:51 PM 42.1 °F 37.7 °F 21.9 °F 45% 30.22 in 10.0 mi SSW 6.9 mph - N/A   Clear
4:51 PM 39.9 °F - 21.9 °F 49% 30.22 in 10.0 mi Calm Calm - N/A   Clear
5:51 PM 35.1 °F - 23.0 °F 61% 30.22 in 10.0 mi Calm Calm - N/A   Clear
6:51 PM 32.0 °F - 25.0 °F 75% 30.23 in 10.0 mi Calm Calm - N/A   Clear
7:51 PM 30.0 °F - 25.0 °F 82% 30.23 in 10.0 mi Calm Calm - N/A   Clear
8:51 PM 28.9 °F - 25.0 °F 85% 30.23 in 10.0 mi Calm Calm - N/A   Partly Cloudy
9:51 PM 27.0 °F - 25.0 °F 92% 30.21 in 10.0 mi Calm Calm - N/A   Clear
10:51 PM 26.1 °F - 25.0 °F 96% 30.21 in 10.0 mi Calm Calm - N/A   Scattered Clouds
11:51 PM 26.1 °F - 24.1 °F 92% 30.19 in 10.0 mi Calm Calm - N/A   Clear